Weather in Znamenskiy

Russia / Saratov Oblast     52°19′31″N   49°09′52″E
temp.,
°C
wind,
m/s
gust,
m/s
humid.,
%
clouds,
%
prec.,
mm/h
press.,
hPa
HPBL,
m
18 may, tue
tue1801:00+20ese22340 0.0 101612
04:00+19e33350 0.0 101637
07:00+20ese49440 0.0 1016180
10:00+27ese68310 0.0 1015503
13:00+31se57260 0.0 10151578
16:00+31ese56193 0.0 10143416
19:00+27ese36360 0.0 101492
22:00+22ene47380 0.0 101484
19 may, wed
wed1901:00+20e47392 0.0 101389
04:00+19e484412 0.0 1013105
07:00+20e612655 0.0 1013303
10:00+27ese79423 0.0 1013808
13:00+30ese78290 0.0 10132967
16:00+30ese783033 0.0 10122920
19:00+26ese712461 0.0 1012488
22:00+23ese816490 0.0 1014611
20 may, thu
thu2001:00+21ese817570 0.0 1014756
04:00+19ese715570 0.0 1014486
07:00+18se715630 0.0 1015668
10:00+22se9125390 0.0 10151095
13:00+25se9124698 0.0 10152228
16:00+21ssw5864100 0.3 1015686
19:00+16sw31085100 3.9 1016567
22:00+16se3895100 11.4 1017295
21 may, fri
fri2101:00+16se2391100 0.8 101787
04:00+15sse3494100 0.8 1018102
07:00+17ssw23810 0.0 1019189
10:00+21sw44550 0.0 10191000
13:00+23sw45451 0.0 10201850
16:00+24sw454169 0.0 10201992
19:00+22wsw245412 0.0 1020114
22:00+18wnw2264100 0.0 102115
22 may, sat
sat2201:00+17nnw116517 0.0 102211
04:00+16ese116620 0.0 102311
07:00+19ese22625 0.0 1024110
10:00+24se3348100 0.0 1023759
13:00+26sse34385 0.0 10231595
16:00+28sse45335 0.0 10221747
19:00+26se22477 0.0 102129
22:00+21sse33545 0.0 102223